Weather Roundup
Issued by NWS Chicago, IL

Home | Current Version | Previous Version | Text Only | Print | Product List | Glossary Off
Versions: 1 2 3 4 5 6 7 8 9 10 11 12 13 14 15 16 17 18 19 20 21 22 23 24 25 26 27 28 29 30 31 32 33 34 35 36 37 38 39 40 41 42 43 44 45 46 47 48 49 50

000
NZUS59 KLOT 162003
HRRLOT

CHICAGO AREA WEATHER ROUNDUP
NATIONAL WEATHER SERVICE CHICAGO/ROMEOVILLE IL
200 PM CST TUE JAN 16 2018

NOTE: "FAIR" INDICATES FEW OR NO CLOUDS BELOW 12,000 FEET WITH NO
SIGNIFICANT WEATHER AND/OR OBSTRUCTIONS TO VISIBILITY.

* THESE STATIONS ARE NOT UNDER NWS QUALITY CONTROL. THEY ALSO MAY NOT
  REPORT WEATHER SUCH AS PRECIPITATION OR FOG.

ILZ005-006-012>014-019>023-162100-
NORTHEAST ILLINOIS

CITY           SKY/WX    TMP DP  RH WIND       PRES   REMARKS
OHARE          PTSUNNY   24  12  60 N13       30.43S WCI  12
MIDWAY           N/A     24  13  62 NW13      30.44S WCI  12
AURORA           N/A     19  12  74 NW15      30.47S WCI   5
LANSING*       CLOUDY    24  18  80 NW10      30.44R WCI  13
JOLIET*          N/A     21  14  73 W10       30.48R WCI  10
WAUKEGAN       PTSUNNY   27  11  51 N8        30.43S WCI  19
DUPAGE AIRPORT   N/A     21  11  65 NW10      30.44S WCI  10
WHEELING       CLOUDY    24  12  60 N9        30.45S WCI  14
KANKAKEE*      CLOUDY    17  10  77 W15G22    30.48S WCI   2
MORRIS*          N/A     17  11  77 W14       30.48S WCI   3
LEWIS AIRPORT*   N/A     19  13  75 W13       30.46S WCI   6
NORTHERLY ISL    N/A     24  15  68 W7          N/A  WCI  16
$$

WIZ051-052-058>065-066-070>072-162100-
SOUTHEAST WISCONSIN

CITY           SKY/WX    TMP DP  RH WIND       PRES   REMARKS
MILWAUKEE        N/A     25  10  53 N15       30.44S WCI  13
KENOSHA*         N/A     24   9  52 NW12      30.43S WCI  13
RACINE*        CLOUDY    23  10  57 N13       30.45S WCI  11
BURLINGTON       N/A     23   9  55 N12       30.44S WCI  11
WAUKESHA       MOSUNNY   21   9  58 NW12      30.45S WCI   9
WEST BEND        N/A     21  10  63 NW13      30.44S WCI   9
$$

INZ001>003-010>013-019-020-162100-
NORTHWEST INDIANA

CITY           SKY/WX    TMP DP  RH WIND       PRES   REMARKS
GARY*          PTSUNNY   25  18  74 W12       30.43S WCI  14
MICHIGAN CITY* NOT AVBL
RENSSELAER*    NOT AVBL
VALPARAISO     CLOUDY    19  14  81 SW8       30.42R HAZE    WCI   9
$$

LMZ740>746-162100-
SOUTHERN LAKE MICHIGAN

STATION/POSITION TIME  SKY/WX   TEMP WIND        PRES    VSBY
                                AIR  DIR/SP/G
                 (UTC)          (F)  (DEG/KT/KT) (MB)    (MI)
HARRISON CRIB    1940            23  330/ 15/ 18   N/A
BURNHAM HARBOR   2000            24  340/  7/ 15   N/A
CALUMET HARBOR   1930            24  300/  8/ 14 1029.7R
BURNS HARBOR     1940            23  330/ 15/ 21 1030.1F
MICHIGAN CITY    1940                150/  2/  4   N/A
$$

ABBREVIATIONS USED IN REMARKS
   TC - TEMPERATURE IN CELSIUS
  WCI - WIND CHILL INDEX
   HX - HEAT INDEX
  VSB - VISIBILITY
$$




USA.gov is the U.S. government's official web portal to all federal, state and local government web resources and services.